940  
NZUS52 KFFC 200410  
RWROBS  
WEATHER ROUNDUP FOR GEORGIA  
NATIONAL WEATHER SERVICE PEACHTREE CITY GA  
1200 AM EDT SAT OCT 20 2018  
 
NOTE: "FAIR" INDICATES FEW OR NO CLOUDS BELOW 12,000 FEET WITH NO  
SIGNIFICANT WEATHER AND/OR S TO VISIBILITY
.  
 
* = USE WITH CAUTION. THE STATIONS MARKED WITH AN ASTERISK MAY NOT  
REPORT WEATHER SUCH AS PRECIPITATION, FOG, OR THUNDER AND ARE NOT  
QUALITY CONTROLLED BY NWS.  
 
THE REMARK "TC" DENOTES TEMPERATURE READING IN DEGREES CELSIUS.  
 
GAZ001>058-200500-  
NORTH GEORGIA  
 
CITY SKY/WX TMP DP RH WIND PRES REMARKS
 
ATLANTA MOCLDY 60 55 83 S3 30.14S  
ATHENS FAIR 61 55 81 SW3 30.13F  
CHAMBLEE MOCLDY 59 56 89 S3 30.14S  
PEACHTREE CITY FAIR 58 57 97 CALM 30.15S  
ROME MOCLDY 62 58 86 CALM 30.12F  
WEST ATLANTA FAIR 60 58 92 SW5 30.14S  
GAINESVILLE FAIR 59 56 89 SW5 30.15F  
CARTERSVILLE MOCLDY 58 57 97 CALM 30.14S  
BLAIRSVILLE MOCLDY 56 55 94 CALM 30.15F  
DECATUR CLOUDY 68 53 58 W6 30.11S  
CLEMSON CLOUDY 61 53 75 W7 30.13R  
GREENVILLE FAIR 62 53 72 SW9 30.10F  
FLORENCE NOT AVBL  
CHARLESTON FAIR 70 66 87 CALM 30.10F  
MYRTLE BEACH FAIR 73 67 81 S9 30.10F  
FAYETTEVILLE FAIR 63 58 83 S6 30.08F  
WILMINGTON FAIR 64 60 87 S5 30.09F  
RALEIGH FAIR 56 52 86 SW5 30.06F  
DALTON FAIR 61 59 94 S3 30.13F  
LAWRENCEVILLE FAIR 59 56 89 CALM N/A  
MARIETTA NOT AVBL  
KENNESAW FAIR 60 56 86 SW3 30.14F  
WINDER FAIR 61 55 82 SW3 30.16F  
CANTON CLOUDY 61 55 82 CALM 30.15F  
TOCCOA CLOUDY 63 53 71 CALM 30.12S  
CORNELIA CLOUDY 59 53 81 W3 30.13F  
JASPER MOCLDY 59 55 85 CALM 30.17F  
CHARLOTTE CLOUDY 63 57 81 SW7 30.08F  

 
 
GAZ059>098-102>109-200500-  
OTHER STATIONS  
 
CITY SKY/WX TMP DP RH WIND PRES REMARKS
 
AUGUSTA-BUSH CLOUDY 68 62 81 CALM 30.12F  
AUGUSTA-DANIEL FAIR 68 59 73 CALM 30.13F  
COLUMBUS FAIR 67 62 84 E5 30.13F  
MACON FAIR 61 60 97 CALM 30.14S  
ROBINS AFB FAIR 61 60 97 CALM 30.14S  
GREENSBORO FAIR 61 61 100 CALM 30.10F  
THOMSON FAIR 61 60 94 CALM 30.17F  
SANDERSVILLE NOT AVBL  
THOMASTON FAIR 59 55 88 CALM 30.16S  
BUTLER N/A 63 61 95 CALM 30.15S  
LAGRANGE MOCLDY 63 62 98 CALM 30.14S  
MILLEDGEVILLE FAIR 61 61 100 CALM 30.14F  
CARROLLTON FAIR 57 56 97 CALM 30.19R  
AMERICUS FAIR 68 61 77 CALM 30.15F  
CORDELE FAIR 65 62 88 CALM 30.14S  
SAVANNAH FAIR 69 68 96 CALM 30.12F  
NEW BERN FAIR 57 53 86 S5 30.10F  
HUNTSVILLE CLOUDY 66 58 75 W3 30.10F  

 
 
GAZ099>101-110>166-200500-  
OTHER STATIONS  
 
CITY SKY/WX TMP DP RH WIND PRES REMARKS
 
VALDOSTA FAIR 71 68 90 SE5 30.13F  
ALMA FAIR 68 66 93 CALM 30.12F FOG  
ST SIMONS FAIR 72 68 87 CALM 30.11F  
FT STEWART FAIR 70 68 94 CALM 30.10F  
ALBANY FAIR 73 67 81 CALM 30.14S  
HUNTER AFB FAIR 70 65 86 CALM 30.09F  
MOODY AFB FAIR 71 68 90 SE5 30.12F  
BRUNSWICK FOG 68 64 88 CALM 30.12F VSB 1/4  
BAINBRIDGE NOT AVBL  
MOULTRIE FAIR 70 68 94 CALM 30.13F  
VIDALIA FAIR 66 61 82 CALM 30.13F  
WAYCROSS FAIR 71 68 90 S3 30.13F  
DOUGLAS FAIR 70 66 88 CALM 30.14F  
TIFTON FAIR N/A N/A N/A CALM 30.12F  
HAZELHURST FAIR 69 64 85 CALM 30.12F  
COLUMBIA MOCLDY 69 64 84 SW3 30.09F  
RALEIGH FAIR 56 52 86 SW5 30.06F  
GREENSBORO CLOUDY 57 51 80 SW8 30.05F  
HICKORY FAIR 57 50 77 S6 30.05F  
ASHEVILLE FAIR 58 52 80 S5 30.09F  
KNOXVILLE LGT RAIN 64 58 80 SW12 30.05F  
NASHVILLE LGT RAIN 62 48 60 SW5 30.08S  
JACKSONMS FAIR 68 66 93 CALM 30.11F  
TUPELO NOT AVBL  
GREENWOOD CLOUDY 65 63 93 CALM 30.11R  
MERIDIAN FAIR 70 67 90 CALM 30.12S  
NEW ORLEANS FAIR 78 76 93 SE5 30.10S HX 81  

 
 
 
CLICK HERE TO GO TO PREVIOUS BULLETINS.

The Nexlab GA Page Main Text Page